Overview Statistics Trail Chart Weather Telemetry Raw packets
 

This is the latest recevied weather packets stored in our database for station/object DL0BB-10. If no packets are shown the sender has not sent any weather packets the latest 10 day(s).

<< 33 34 35 36 37 38 39 >>
Time Temp. Humidity Pressure Rain* Wind** Luminosity Snow
1787921978 26.11° C 43% 1012.9 hPa - - - -
1787921078 26.67° C 42% 1013.2 hPa - - - -
1787920178 27.22° C 41% 1013.2 hPa - - - -
1787919278 26.11° C 43% 1013.2 hPa - - - -
1787918378 26.11° C 43% 1013.3 hPa - - - -
1787917477 26.11° C 42% 1013.2 hPa - - - -
1787916575 26.67° C 41% 1013.6 hPa - - - -
1787915675 25.56° C 43% 1013.1 hPa - - - -
1787914775 25.56° C 43% 1013.1 hPa - - - -
1787913875 26.11° C 41% 1012.8 hPa - - - -
1787912975 26.67° C 41% 1012.9 hPa - - - -
1787912074 25.56° C 43% 1012.9 hPa - - - -
1787911174 25.56° C 42% 1012.8 hPa - - - -
1787910274 26.11° C 41% 1012.5 hPa - - - -
1787909374 26.11° C 41% 1012.7 hPa - - - -
1787908474 25.56° C 43% 1012.3 hPa - - - -
1787907573 25.56° C 42% 1012.1 hPa - - - -
1787906677 26.11° C 41% 1012.3 hPa - - - -
1787905777 26.11° C 42% 1013 hPa - - - -
1787904876 25.56° C 42% 1012.7 hPa - - - -
1787903976 25.56° C 42% 1012.1 hPa - - - -
1787903076 26.11° C 40% 1010.9 hPa - - - -
1787902176 25.56° C 42% 1010.7 hPa - - - -
1787901276 25.56° C 42% 1010.5 hPa - - - -
1787900375 26.11° C 41% 1010.8 hPa - - - -

* Rain since midnight (hover to see other rain measurements)
** Current wind speed in m/s (hover to see current wind gust speed)